星链-35127(STARLINK-35127)

导读 | 豆包AI

STARLINK-35127是美国SpaceX公司星链(Starlink)星座的卫星,于2025年9月18日发射入轨。作为星链全球低轨卫星互联网计划的一员,它旨在为全球偏远地区、海洋和航空场景提供低延迟、高速宽带服务,可支持民用通信、商业运营乃至应急救援等多种应用。该卫星加入了日益壮大的星链星座网络,进一步推动全球互联网覆盖,但也引发了太空碎片与轨道安全等争议。

基本信息
目录编号:
65639
目录名称:
STARLINK-35127
国际标识:
2025-210T
轨道中心:
EARTH
卫星名称:
星链-35127
卫星全名:
星链-35127(STARLINK-35127)
卫星状态:
在轨 (已飞行223 天)
发射日期:
2025-09-18 UTC
国别 :
美国 (US)
星等 :
--
轨道信息
数据来源 国际轨道数据
星历时间: 2026-04-29T12:04:31+0800
4小时前
查看轨道信息
半长轴: 6840.911km
偏心率: 0.0001632
轨道倾角: 53.161°
近地点辐角 97.722°
升交点赤经 72.332°
平近点角 262.397°
近地点: 461.657km
远地点: 463.891km
周期: 93.849分钟
每日圈数: 15.343764
详细信息
固有亮度:
5
最大亮度:
2.5
卫星平台:
Starlink V1.0
覆盖范围:
全球
运营商:
太空探索技术公司
运营商所在国:
美国
制造商(研发单位):
太空探索技术公司
制造商所在国:
美国
使用方式:
暂无
卫星简介
Starlink 计划是 SpaceX 推出的全球卫星互联网项目,通过发射低轨道卫星,为全球尤其是偏远地区提供高速、低延迟的互联网服务。自 2019 年起,Starlink 已部署数千颗卫星,旨在缩小全球数字鸿沟,推动互联网普及。该项目还为军事、航空等行业提供通信支持,带来广泛经济效益。
2D轨道图
3D轨道图
轨道高度分析图
轨道倾角分析图
轨道综合分析图
查看轨道综合分析图